星链-31759 (STARLINK-31759 )

导读

STARLINK-31759是美国太空探索技术公司SpaceX星链互联网星座的卫星,于2024年5月13日发射入轨,属于星链低轨星座建设中的组网卫星。星链星座通过部署大量低轨卫星,可为全球提供高速低延迟的互联网接入服务,STARLINK-31759的入轨进一步扩充了星链星座的覆盖范围与服务容量。

基本信息
目录编号:
59740
目录名称:
STARLINK-31759
国际标识:
2024-090L
轨道中心:
EARTH
卫星名称:
星链-31759
卫星全名:
星链-31759 (STARLINK-31759 )
卫星状态:
在轨 (已飞行852 天)
发射日期:
2024-05-13 UTC
国别 :
美国 (US)
星等 :
--
该卫星已列入 空间交会检测服务 Space Conjunction Data Service (SCDS) ,当前飞行风险评估等级: 无高风险
轨道信息
数据来源 国际轨道数据
星历时间: 2026-09-11T07:26:17+0800
1天前
查看轨道信息
半长轴: 6861.184km
偏心率: 0.0001371
轨道倾角: 43.004°
近地点辐角 279.591°
升交点赤经 217.414°
平近点角 80.479°
近地点: 482.106km
远地点: 483.988km
周期: 94.267分钟
每日圈数: 15.275807
详细信息
固有亮度:
5
最大亮度:
1.5
卫星平台:
Starlink v2.0 mini
覆盖范围:
全球
运营商:
太空探索技术公司
运营商所在国:
美国
制造商(研发单位):
太空探索技术公司
制造商所在国:
美国
使用方式:
暂无
卫星简介
星链(Starlink)计划是由太空探索技术公司(SpaceX)提出的一个巨型低轨卫星互联网星座项目,计划在2019年至2024年间在太空搭建由约1.2万颗卫星组成的“星链”网络,其中1584颗将部署在地球上空550千米处的近地轨道,并从2020年开始工作。该卫星仍在工作。
2D轨道图
3D轨道图
轨道高度分析图
轨道倾角分析图
轨道综合分析图
查看轨道综合分析图
交会数据列表
事件ID 空间交会对象 最接近时刻(TCA) 交会距离 交会风险概率(CRP) 交会风险指数(CRI) 操作
CDM_260910-020205-974006-192121
2026-09-10T
02:02:04+0000
0.862 km
远距离
2.866659E-5 中风险 0.64
CDM_260911-103005-974006-367921
2026-09-11T
10:30:08+0000
1.249 km
极远距离
9.57969E-6 低风险 0.55
CDM_260909-172405-974006-192121
2026-09-09T
17:24:14+0000
1.363 km
极远距离
5.97439E-6 低风险 0.51
CDM_260911-190705-974006-367921
2026-09-11T
19:07:57+0000
2.020 km
极远距离
2.196365E-6 低风险 0.42
CDM_260911-120405-974006-367921
2026-09-11T
12:04:17+0000
2.409 km
极远距离
1.499075E-6 低风险 0.39
CDM_260911-204205-974006-367921
2026-09-11T
20:42:06+0000
2.564 km
极远距离
1.343663E-6 低风险 0.38
与全量物体交会距离演化趋势
与全量物体交会风险概率演化趋势